Orbital Elements at Epoch 2454608.5 (2008-May-22.0) TDB
Reference: JPL 28 (heliocentric ecliptic J2000)
Element | Value | Uncertainty (1-sigma) | Units |
e | .424663107414368 | 2.4111e-07 | |
a | 4.16645635942 | 8.3242e-07 | au |
q | 2.397116054922347 | 1.3239e-06 | au |
i | 13.17925448445525 | 2.4958e-05 | deg |
node | 9.047678233059186 | 8.4119e-05 | deg |
peri | 31.21278505095711 | 0.00053519 | deg |
M | 67.42780160989953 | 0.00021157 | deg |
tp | 2454026.684640200012 (2006-Oct-18.18464020) | 0.0016537 | TDB |
period | 3106.337809139612 8.50 | 0.00093092 2.549e-06 | d yr |
n | .1158920961335214 | 3.4731e-08 | deg/d |
Q | 5.935796663917652 | 1.1859e-06 | au |
|
| | Orbit Determination Parameters
Additional Information
|